EET,Max TemperatureF,Mean TemperatureF,Min TemperatureF,Max Dew PointF,MeanDew PointF,Min DewpointF,Max Humidity, Mean Humidity, Min Humidity, Max Sea Level PressureIn, Mean Sea Level PressureIn, Min Sea Level PressureIn, Max VisibilityMiles, Mean VisibilityMiles, Min VisibilityMiles, Max Wind SpeedMPH, Mean Wind SpeedMPH, Max Gust SpeedMPH,PrecipitationIn, CloudCover, Events, WindDirDegrees
2012-11-1,95,79,63,59,51,43,57,39,21,29.95,29.87,29.82,6,6,6,4,1,,0.00,,,360
2012-11-2,97,84,70,66,60,54,60,44,26,29.89,29.83,29.77,6,6,6,5,1,,0.00,2,,350
2012-11-3,98,87,76,70,65,57,65,47,31,29.86,29.81,29.77,6,5,0,28,3,34,0.00,3,,39
2012-11-4,99,86,74,68,63,58,69,45,18,29.89,29.85,29.79,6,6,6,12,4,,0.00,5,,24
2012-11-5,94,86,77,63,59,52,54,41,23,29.92,29.88,29.83,6,6,6,15,6,,0.00,5,,24
2012-11-6,86,79,69,68,63,55,88,63,37,29.92,29.89,29.85,6,6,4,8,3,,0.20,5,Rain-Thunderstorm,320
2012-11-7,86,75,64,66,61,52,94,63,31,29.98,29.91,29.87,6,6,1,20,2,,0.00,3,,120
2012-11-8,93,78,62,66,60,54,77,55,28,29.92,29.85,29.80,6,6,4,6,1,,0.00,1,,219
2012-11-9,89,77,65,66,62,57,73,57,32,29.92,29.86,29.80,6,6,6,7,4,,0.00,,,301
2012-11-10,83,72,62,63,54,50,73,53,24,30.01,29.96,29.92,6,6,6,7,3,,0.00,,,328
2012-11-11,83,70,57,55,52,46,72,53,25,30.09,30.01,29.73,6,5,4,7,3,,0.00,,,294
2012-11-12,81,68,55,54,50,45,72,50,18,30.08,30.02,29.95,6,6,5,8,3,,0.00,,,316
2012-11-13,80,68,56,57,53,48,72,56,32,30.04,29.98,29.94,6,6,6,5,2,,0.00,,,225
2012-11-14,82,68,55,59,54,48,72,57,35,30.04,29.97,29.92,6,6,6,5,1,,0.00,,,213
2012-11-15,86,71,56,59,53,50,72,53,26,30.04,29.95,29.89,6,6,6,6,1,,0.00,,,30
2012-11-16,86,72,59,57,55,52,77,54,23,29.98,29.92,29.86,6,6,6,7,2,,0.00,,,283
2012-11-17,88,74,60,59,52,46,68,47,20,29.92,29.87,29.83,6,5,4,5,1,,0.00,,,275
2012-11-18,86,72,57,55,48,45,63,42,17,29.98,29.92,29.88,6,6,6,7,1,,0.00,,,228
2012-11-19,82,68,54,50,46,41,59,43,30,30.04,29.97,29.92,6,6,6,5,1,,0.00,,,151
2012-11-20,85,70,54,59,49,41,67,46,27,30.04,29.97,29.92,6,6,6,5,1,,0.00,,,323
2012-11-21,87,72,56,57,50,43,68,47,22,29.98,29.92,29.86,6,6,6,4,1,,0.00,,,1
2012-11-22,87,72,56,54,47,43,62,41,18,29.92,29.87,29.80,6,6,6,6,2,,0.00,,,246
2012-11-23,83,71,59,57,53,36,72,54,32,30.06,29.96,29.89,6,6,6,13,4,,0.00,,,288
2012-11-24,80,68,56,57,53,50,82,58,26,30.04,29.99,29.92,6,6,6,6,2,,0.00,,,318
2012-11-25,79,68,57,55,53,50,77,57,30,30.01,29.98,29.92,6,6,6,6,3,,0.00,3,,264
2012-11-26,78,67,56,55,53,50,82,61,33,30.07,30.01,29.98,6,6,6,7,3,,0.00,,,207
2012-11-27,79,66,52,57,51,46,82,56,37,30.04,29.99,29.92,6,5,2,13,2,,0.00,,,227
2012-11-28,82,68,55,55,50,45,72,53,32,30.05,30.00,29.95,6,6,6,5,1,,0.00,,,260
2012-11-29,83,67,51,55,47,43,71,48,26,30.06,30.01,29.95,6,6,6,4,1,,0.00,,,235
2012-11-30,84,69,54,59,50,41,63,49,33,30.06,30.00,29.95,6,6,6,5,1,,0.00,,,337